When you browse on this site, cookies collect data to enhance your experience and personalize the content and advertising you see.
Visit our Privacy Policy to learn more. By continuing to use the site, you agree to this use of cookies and data.
  • In France
  • List of Countries
  • For 7 days
  • Water Temperature
  • Satellite Maps
  • Weather Map
  • Weather Widgets
  • user-avatar
    Login

    Hourly Weather Balahani

    Today, 10 December, Monday

    Time Temperature Precipitation Wind Pressure Humidity
    00:00 +2°C° 0 mm 2 mps 684 mmHg 71%
    01:00 +2°C° 0 mm 2 mps 684 mmHg 69%
    02:00 +2°C° 0 mm 2 mps 684 mmHg 68%
    03:00 +2°C° 0 mm 2 mps 683 mmHg 67%
    04:00 +2°C° 0 mm 2 mps 683 mmHg 66%
    05:00 +2°C° 0 mm 2 mps 683 mmHg 65%
    06:00 +2°C° 0 mm 2 mps 683 mmHg 63%
    07:00 +3°C° 0 mm 2 mps 683 mmHg 60%
    08:00 +4°C° 0 mm 2 mps 682 mmHg 56%
    09:00 +5°C° 0 mm 2 mps 682 mmHg 52%
    10:00 +6°C° 0 mm 2 mps 682 mmHg 50%
    11:00 +8°C° 0 mm 2 mps 682 mmHg 48%
    12:00 +9°C° 0 mm 2 mps 682 mmHg 46%
    13:00 +8°C° 0 mm 2 mps 682 mmHg 51%
    14:00 +8°C° 0 mm 2 mps 681 mmHg 55%
    15:00 +7°C° 0 mm 2 mps 681 mmHg 60%
    16:00 +6°C° 0 mm 2 mps 681 mmHg 62%
    17:00 +5°C° 0 mm 2 mps 681 mmHg 65%
    18:00 +4°C° 0 mm 2 mps 681 mmHg 67%
    19:00 +4°C° 0 mm 2 mps 681 mmHg 65%
    20:00 +4°C° 0 mm 2 mps 680 mmHg 62%
    21:00 +4°C° 0 mm 2 mps 680 mmHg 60%
    22:00 +4°C° 0 mm 2 mps 680 mmHg 59%
    23:00 +4°C° 0 mm 2 mps 680 mmHg 59%

    Tomorrow, 11 December, Tuesday

    Time Temperature Precipitation Wind Pressure Humidity
    00:00 +4°C° 0 mm 2 mps 680 mmHg 58%
    01:00 +4°C° 0 mm 2 mps 680 mmHg 57%
    02:00 +4°C° 0 mm 2 mps 680 mmHg 56%
    03:00 +4°C° 0 mm 2 mps 680 mmHg 55%
    04:00 +4°C° 0 mm 2 mps 680 mmHg 55%
    05:00 +4°C° 0 mm 2 mps 680 mmHg 55%
    06:00 +4°C° 0 mm 2 mps 680 mmHg 54%
    07:00 +5°C° 0 mm 2 mps 680 mmHg 52%
    08:00 +6°C° 0 mm 2 mps 680 mmHg 50%
    09:00 +7°C° 0 mm 2 mps 680 mmHg 48%
    10:00 +9°C° 0 mm 2 mps 680 mmHg 46%
    11:00 +10°C° 0 mm 2 mps 680 mmHg 44%
    12:00 +13°C° 0 mm 2 mps 680 mmHg 42%
    13:00 +12°C° 0 mm 2 mps 679 mmHg 45%
    14:00 +11°C° 0 mm 3 mps 679 mmHg 48%
    15:00 +10°C° 0 mm 3 mps 678 mmHg 52%
    16:00 +10°C° 0 mm 3 mps 678 mmHg 54%
    17:00 +9°C° 0 mm 3 mps 678 mmHg 56%
    18:00 +7°C° 0 mm 4 mps 677 mmHg 58%
    19:00 +7°C° 0 mm 4 mps 677 mmHg 57%
    20:00 +7°C° 0 mm 4 mps 677 mmHg 57%
    21:00 +7°C° 0 mm 4 mps 676 mmHg 56%
    22:00 +7°C° 0 mm 4 mps 676 mmHg 57%
    23:00 +6°C° 0 mm 4 mps 676 mmHg 57%

    Day after tomorrow, 12 December, Wednesday

    Time Temperature Precipitation Wind Pressure Humidity
    00:00 +6°C° 0 mm 4 mps 676 mmHg 57%
    01:00 +6°C° 0 mm 4 mps 676 mmHg 58%
    02:00 +6°C° 0 mm 4 mps 677 mmHg 59%
    03:00 +6°C° 0 mm 4 mps 677 mmHg 60%
    04:00 +5°C° 0.1 mm 4 mps 678 mmHg 63%
    05:00 +5°C° 0.1 mm 4 mps 679 mmHg 65%
    06:00 +5°C° 0.1 mm 4 mps 679 mmHg 68%
    07:00 +5°C° 0.1 mm 3 mps 680 mmHg 68%
    08:00 +5°C° 0.1 mm 3 mps 681 mmHg 68%
    09:00 +7°C° 0.1 mm 3 mps 682 mmHg 68%
    10:00 +7°C° 0 mm 3 mps 682 mmHg 65%
    11:00 +8°C° 0 mm 3 mps 682 mmHg 62%
    12:00 +8°C° 0 mm 3 mps 682 mmHg 58%
    13:00 +8°C° 0 mm 3 mps 682 mmHg 59%
    14:00 +7°C° 0 mm 2 mps 682 mmHg 59%
    15:00 +7°C° 0 mm 2 mps 682 mmHg 60%
    16:00 +6°C° 0 mm 2 mps 682 mmHg 63%
    17:00 +6°C° 0 mm 1 mps 682 mmHg 67%
    18:00 +6°C° 0 mm 1 mps 682 mmHg 70%
    19:00 +6°C° 0.1 mm 1 mps 682 mmHg 72%
    20:00 +5°C° 0.1 mm 1 mps 682 mmHg 74%
    21:00 +5°C° 0.1 mm 1 mps 681 mmHg 75%
    22:00 +5°C° 0.3 mm 1 mps 681 mmHg 78%
    23:00 +4°C° 0.3 mm 2 mps 681 mmHg 80%

    13 December, Thursday

    Time Temperature Precipitation Wind Pressure Humidity
    00:00 +4°C° 0.3 mm 2 mps 681 mmHg 82%
    01:00 +4°C° 0.2 mm 2 mps 680 mmHg 84%
    02:00 +3°C° 0.2 mm 2 mps 680 mmHg 85%
    03:00 +3°C° 0.2 mm 2 mps 680 mmHg 86%
    04:00 +3°C° 0.1 mm 2 mps 680 mmHg 88%
    05:00 +3°C° 0.1 mm 2 mps 680 mmHg 89%
    06:00 +3°C° 0.1 mm 2 mps 680 mmHg 90%
    07:00 +3°C° 0.3 mm 2 mps 680 mmHg 89%
    08:00 +3°C° 0.3 mm 2 mps 681 mmHg 88%
    09:00 +3°C° 0.3 mm 2 mps 681 mmHg 87%
    10:00 +3°C° 0.1 mm 2 mps 682 mmHg 84%
    11:00 +4°C° 0.1 mm 2 mps 682 mmHg 81%
    12:00 +3°C° 0.1 mm 3 mps 682 mmHg 78%
    13:00 +3°C° 0.2 mm 3 mps 683 mmHg 79%
    14:00 +3°C° 0.2 mm 3 mps 683 mmHg 80%
    15:00 +3°C° 0.2 mm 3 mps 684 mmHg 81%
    16:00 +2°C° 0.1 mm 3 mps 684 mmHg 83%
    17:00 +2°C° 0.1 mm 2 mps 685 mmHg 85%
    18:00 +2°C° 0.1 mm 2 mps 685 mmHg 88%
    19:00 +1°C° 0.1 mm 2 mps 685 mmHg 87%
    20:00 +1°C° 0.1 mm 2 mps 685 mmHg 86%
    21:00 +1°C° 0.1 mm 2 mps 686 mmHg 85%
    22:00 +2°C° 0.1 mm 1 mps 686 mmHg 83%
    23:00 +2°C° 0.1 mm 1 mps 686 mmHg 82%

    14 December, Friday

    Time Temperature Precipitation Wind Pressure Humidity
    00:00 +2°C° 0.1 mm 1 mps 686 mmHg 80%
    01:00 +1°C° 0.1 mm 1 mps 686 mmHg 80%
    02:00 +1°C° 0.1 mm 1 mps 686 mmHg 79%
    03:00 +1°C° 0.1 mm 1 mps 686 mmHg 78%
    04:00 +1°C° 0 mm 1 mps 686 mmHg 78%
    05:00 +1°C° 0 mm 1 mps 686 mmHg 78%
    06:00 +1°C° 0 mm 1 mps 687 mmHg 78%
    07:00 +1°C° 0.1 mm 1 mps 687 mmHg 77%
    08:00 +1°C° 0.1 mm 1 mps 687 mmHg 75%
    09:00 +2°C° 0.1 mm 1 mps 687 mmHg 74%
    10:00 +2°C° 0.1 mm 1 mps 687 mmHg 73%
    11:00 +3°C° 0.1 mm 1 mps 687 mmHg 71%
    12:00 +2°C° 0.1 mm 2 mps 687 mmHg 70%
    13:00 +3°C° 0.1 mm 1 mps 687 mmHg 71%
    14:00 +3°C° 0.1 mm 1 mps 688 mmHg 71%
    15:00 +3°C° 0.1 mm 1 mps 688 mmHg 72%
    16:00 +2°C° 0 mm 1 mps 688 mmHg 76%
    17:00 +1°C° 0 mm 1 mps 688 mmHg 80%
    18:00 0°C° 0 mm 1 mps 688 mmHg 83%
    19:00 0°C° 0 mm 1 mps 688 mmHg 80%
    20:00 0°C° 0 mm 1 mps 688 mmHg 77%
    21:00 0°C° 0 mm 1 mps 689 mmHg 74%
    22:00 0°C° 0 mm 1 mps 688 mmHg 71%
    23:00 0°C° 0 mm 1 mps 688 mmHg 67%

    15 December, Saturday

    Time Temperature Precipitation Wind Pressure Humidity
    00:00 -3°C° 0 mm 2 mps 688 mmHg 64%
    01:00 -1°C° 0 mm 1 mps 688 mmHg 62%
    02:00 -1°C° 0 mm 1 mps 688 mmHg 60%
    03:00 -1°C° 0 mm 1 mps 688 mmHg 58%
    04:00 -1°C° 0 mm 1 mps 688 mmHg 56%
    05:00 -1°C° 0 mm 1 mps 688 mmHg 55%
    06:00 -1°C° 0 mm 1 mps 688 mmHg 53%
    07:00 0°C° 0 mm 1 mps 689 mmHg 51%
    08:00 +1°C° 0 mm 1 mps 689 mmHg 49%
    09:00 +2°C° 0 mm 1 mps 689 mmHg 47%
    10:00 +3°C° 0 mm 1 mps 689 mmHg 45%
    11:00 +4°C° 0 mm 1 mps 689 mmHg 43%
    12:00 +5°C° 0 mm 1 mps 689 mmHg 42%
    13:00 +5°C° 0 mm 1 mps 689 mmHg 45%
    14:00 +5°C° 0 mm 1 mps 689 mmHg 48%
    15:00 +5°C° 0 mm 1 mps 689 mmHg 52%
    16:00 +4°C° 0 mm 1 mps 689 mmHg 53%
    17:00 +2°C° 0 mm 2 mps 689 mmHg 55%
    18:00 -1°C° 0 mm 2 mps 689 mmHg 56%
    19:00 +1°C° 0 mm 2 mps 689 mmHg 54%
    20:00 +1°C° 0 mm 2 mps 689 mmHg 51%
    21:00 +1°C° 0 mm 2 mps 689 mmHg 49%
    22:00 +1°C° 0 mm 2 mps 689 mmHg 47%
    23:00 +1°C° 0 mm 2 mps 689 mmHg 46%
    Show more